GW7711 Weather Reports


time (UTC)temp
C
wind
direction
speed
KPH
gust
KPH
rain 1hr
cm
rain 24hr
cm
rain mn
cm
humidity
%
barometer
mb
20260901070258 21 260 4.8 11.3 0.00 0.00 0.00 60 1020.5
20260901065804 21 238 4.8 9.7 0.00 0.00 0.00 62 1020.5
20260901065238 21 209 4.8 8.0 0.00 0.00 0.00 62 1020.5
20260901064728 21 262 6.4 11.3 0.00 0.00 0.00 64 1020.4
20260901064219 21 225 4.8 8.0 0.00 0.00 0.00 64 1020.4
20260901063727 20 233 4.8 9.7 0.00 0.00 0.00 63 1020.3
20260901063200 20 245 4.8 9.7 0.00 0.00 0.00 63 1020.3
20260901062648 20 221 4.8 9.7 0.00 0.00 0.00 65 1020.3
20260901062138 20 287 4.8 9.7 0.00 0.00 0.00 65 1020.3
20260901061628 20 258 6.4 9.7 0.00 0.00 0.00 64 1020.2
20260901061118 20 209 6.4 11.3 0.00 0.00 0.00 64 1020.2
20260901060623 21 238 4.8 9.7 0.00 0.00 0.00 62 1020.2
20260901060106 21 230 4.8 8.0 0.00 0.00 0.00 62 1020.2
20260901055548 22 228 4.8 9.7 0.00 0.00 0.00 61 1020.2
20260901055052 22 239 4.8 8.0 0.00 0.00 0.00 61 1020.2
20260901054528 25 254 4.8 9.7 0.00 0.00 0.00 52 1020.0
20260901054017 25 225 4.8 9.7 0.00 0.00 0.00 52 1020.0
20260901053508 24 278 4.8 8.0 0.00 0.00 0.00 54 1019.9
20260901052957 24 229 4.8 8.0 0.00 0.00 0.00 54 1019.9
20260901052448 25 229 3.2 4.8 0.00 0.00 0.00 56 1019.7
20260901051937 21 101 0.0 4.8 0.00 0.00 0.00 65 1019.7
20260901051428 21 68 1.6 4.8 0.00 0.00 0.00 65 1019.7
20260901045858 16 245 3.2 6.4 0.00 0.00 0.00 85 1019.6
20260901045403 16 272 3.2 6.4 0.00 0.00 0.00 85 1019.6
20260901044838 15 253 4.8 8.0 0.00 0.00 0.00 88 1019.7
20260901044327 15 256 3.2 4.8 0.00 0.00 0.00 88 1019.7
20260901043818 15 338 1.6 4.8 0.00 0.00 0.00 88 1019.6
20260901043308 15 0 1.6 1.6 0.00 0.00 0.00 88 1019.6
20260901042758 15 222 1.6 3.2 0.00 0.00 0.00 88 1019.4
20260901042247 15 125 1.6 3.2 0.00 0.00 0.00 88 1019.4
20260901041752 15 104 1.6 3.2 0.00 0.00 0.00 89 1019.3
20260901041227 15 131 1.6 4.8 0.00 0.00 0.00 89 1019.3
20260901040720 15 149 0.0 1.6 0.00 0.00 0.00 88 1019.2
20260901040207 15 233 1.6 3.2 0.00 0.00 0.00 88 1019.2
20260901035657 15 62 0.0 3.2 0.00 0.00 0.00 87 1019.1
20260901035202 15 120 1.6 3.2 0.00 0.00 0.00 87 1019.1
20260901034637 15 193 1.6 3.2 0.00 0.00 0.00 88 1019.1
20260901034129 15 266 1.6 4.8 0.00 0.00 0.00 88 1019.1
20260901033619 15 231 1.6 4.8 0.00 0.00 0.00 88 1018.9
20260901033107 15 233 3.2 4.8 0.00 0.00 0.00 88 1018.7
20260901032557 15 228 1.6 4.8 0.00 0.00 0.00 88 1018.7
20260901032046 16 243 3.2 6.4 0.00 0.00 0.00 87 1018.7
20260901031537 16 214 3.2 6.4 0.00 0.00 0.00 87 1018.7
20260901031026 16 244 3.2 6.4 0.00 0.00 0.00 86 1018.8
20260901030521 16 202 3.2 6.4 0.00 0.00 0.00 86 1018.8
20260901030007 16 219 3.2 6.4 0.00 0.00 0.00 85 1018.7
20260901025457 16 211 3.2 4.8 0.00 0.00 0.00 85 1018.7
20260901024946 16 207 3.2 4.8 0.00 0.00 0.00 84 1018.8
20260901024437 16 213 1.6 4.8 0.00 0.00 0.00 84 1018.8
20260901023927 16 212 1.6 4.8 0.00 0.00 0.00 84 1018.8
20260901023419 16 220 3.2 6.4 0.00 0.00 0.00 84 1018.8
20260901022906 16 209 3.2 4.8 0.00 0.00 0.00 82 1018.7
20260901022357 16 143 1.6 3.2 0.00 0.00 0.00 82 1018.7
20260901021846 16 215 1.6 4.8 0.00 0.00 0.00 82 1018.5
20260901021337 16 165 1.6 3.2 0.00 0.00 0.00 82 1018.5
20260901020826 17 209 1.6 4.8 0.00 0.00 0.00 81 1018.4
20260901020318 17 188 1.6 4.8 0.00 0.00 0.00 81 1018.4
20260901015806 17 202 1.6 4.8 0.00 0.00 0.00 81 1018.4
20260901015256 17 150 1.6 3.2 0.00 0.00 0.00 81 1018.2
20260901014746 17 180 1.6 3.2 0.00 0.00 0.00 81 1018.2
20260901014236 17 217 3.2 4.8 0.00 0.00 0.00 81 1018.2
20260901013726 17 221 1.6 4.8 0.00 0.00 0.00 81 1018.2
20260901013237 17 140 1.6 3.2 0.00 0.00 0.00 81 1018.1
20260901012706 17 122 0.0 1.6 0.00 0.00 0.00 81 1018.1
20260901012211 17 96 1.6 3.2 0.00 0.00 0.00 80 1018.1
20260901011701 17 195 1.6 3.2 0.00 0.00 0.00 80 1018.1
20260901011151 17 202 3.2 4.8 0.00 0.00 0.00 79 1018.0
20260901010641 17 208 3.2 6.4 0.00 0.00 0.00 79 1018.0
20260901010118 18 214 1.6 4.8 0.00 0.00 0.00 78 1018.1
20260901005606 18 237 1.6 3.2 0.00 0.00 0.00 78 1018.1
20260901005056 18 158 1.6 3.2 0.00 0.00 0.00 78 1018.1
20260901004546 18 125 1.6 3.2 0.00 0.00 0.00 78 1018.1
20260901004046 18 208 1.6 4.8 0.00 0.00 0.00 77 1018.2
20260901003526 18 164 1.6 4.8 0.00 0.00 0.00 77 1018.2
20260901003032 18 129 1.6 4.8 0.00 0.00 0.00 77 1018.3
20260901002509 18 163 1.6 3.2 0.00 0.00 0.00 77 1018.3
20260901001956 18 235 1.6 3.2 0.00 0.00 0.00 77 1018.1
20260901001445 18 268 1.6 3.2 0.00 0.00 0.00 78 1018.1
20260901000936 18 260 3.2 4.8 0.00 0.00 0.00 78 1018.1
20260901000427 19 241 3.2 4.8 0.00 0.00 0.00 81 1018.1
20260831235917 19 225 3.2 6.4 0.00 0.00 0.00 81 1018.1
20260831235405 18 256 3.2 6.4 0.00 0.00 0.00 85 1018.0
20260831234856 18 246 3.2 6.4 0.00 0.00 0.00 85 1018.0
20260831234345 19 241 3.2 4.8 0.00 0.00 0.00 83 1017.9
20260831233836 19 313 1.6 4.8 0.00 0.00 0.00 83 1017.9
20260831233325 19 169 0.0 0.0 0.00 0.00 0.00 83 1017.9
20260831232818 19 327 0.0 1.6 0.00 0.00 0.00 83 1017.9
20260831232320 19 347 1.6 3.2 0.00 0.00 0.00 84 1018.0
20260831231755 19 9 0.0 1.6 0.00 0.00 0.00 84 1018.0
20260831231245 19 21 0.0 0.0 0.00 0.00 0.00 81 1018.0
20260831230735 19 130 0.0 0.0 0.00 0.00 0.00 81 1018.0
20260831230225 19 36 0.0 0.0 0.00 0.00 0.00 81 1018.1
20260831225717 19 61 0.0 0.0 0.00 0.00 0.00 81 1018.1
20260831225205 19 90 0.0 1.6 0.00 0.00 0.00 81 1018.3
20260831224655 19 71 0.0 3.2 0.00 0.00 0.00 81 1018.3
20260831224145 20 80 0.0 1.6 0.00 0.00 0.00 80 1018.5
20260831223635 20 73 1.6 3.2 0.00 0.00 0.00 80 1018.5
20260831223124 20 90 0.0 3.2 0.00 0.00 0.00 80 1018.6
20260831222620 20 54 0.0 0.0 0.00 0.00 0.00 79 1018.5
20260831222105 20 202 1.6 3.2 0.00 0.00 0.00 79 1018.5
20260831221555 20 186 3.2 6.4 0.00 0.00 0.00 78 1018.8
20260831221044 20 231 3.2 4.8 0.00 0.00 0.00 78 1018.8
20260831220535 20 240 1.6 3.2 0.00 0.00 0.00 77 1018.5
20260831220006 20 153 0.0 0.0 0.00 0.00 0.00 77 1018.5
20260831215519 20 164 0.0 0.0 0.00 0.00 0.00 76 1018.4
20260831215019 20 274 1.6 1.6 0.00 0.00 0.00 76 1018.4
20260831214510 20 296 1.6 1.6 0.00 0.00 0.00 76 1018.2
20260831213945 20 278 1.6 3.2 0.00 0.00 0.00 76 1018.2
20260831213450 20 312 1.6 3.2 0.00 0.00 0.00 75 1018.0
20260831212924 20 295 1.6 3.2 0.00 0.00 0.00 75 1018.0
20260831212417 20 343 1.6 3.2 0.00 0.00 0.00 75 1017.5
20260831211905 20 355 3.2 4.8 0.00 0.00 0.00 75 1017.5
20260831211354 20 351 1.6 4.8 0.00 0.00 0.00 76 1017.4
20260831210844 20 8 1.6 4.8 0.00 0.00 0.00 76 1017.4
20260831210334 20 33 1.6 4.8 0.00 0.00 0.00 76 1017.3
20260831205839 20 74 1.6 3.2 0.00 0.00 0.00 76 1017.3
20260831205317 20 112 0.0 0.0 0.00 0.00 0.00 78 1017.2
20260831204805 20 52 0.0 0.0 0.00 0.00 0.00 77 1017.0
20260831204254 20 32 0.0 3.2 0.00 0.00 0.00 77 1017.0
20260831203744 20 41 1.6 3.2 0.00 0.00 0.00 78 1016.7
20260831203234 20 45 1.6 3.2 0.00 0.00 0.00 78 1016.7
20260831202724 20 22 1.6 3.2 0.00 0.00 0.00 77 1016.4
20260831202215 20 54 1.6 3.2 0.00 0.00 0.00 77 1016.4
20260831201704 20 49 1.6 3.2 0.00 0.00 0.00 78 1016.4
20260831201154 20 66 1.6 3.2 0.00 0.00 0.00 78 1016.4
20260831200644 20 159 0.0 1.6 0.00 0.00 0.00 77 1016.4
20260831200134 20 172 0.0 1.6 0.00 0.00 0.00 77 1016.4
20260831195623 20 144 1.6 1.6 0.00 0.00 0.00 76 1016.1
20260831195120 20 135 0.0 1.6 0.00 0.00 0.00 76 1016.1
20260831194604 20 144 1.6 3.2 0.00 0.00 0.00 78 1016.0
20260831194054 20 131 3.2 4.8 0.00 0.00 0.00 78 1016.0
20260831193544 20 98 1.6 3.2 0.00 0.00 0.00 76 1016.1
20260831193037 20 71 0.0 3.2 0.00 0.00 0.00 76 1016.1
20260831192523 20 72 0.0 1.6 0.00 0.00 0.00 75 1016.0
20260831192037 20 48 0.0 1.6 0.00 0.00 0.00 75 1016.0
20260831191504 21 340 1.6 3.2 0.00 0.00 0.00 75 1015.7
20260831190954 21 153 0.0 1.6 0.00 0.00 0.00 75 1015.7
20260831190443 21 217 1.6 1.6 0.00 0.00 0.00 73 1015.5
20260831185949 21 2 0.0 1.6 0.00 0.00 0.00 73 1015.3
20260831185424 21 5 0.0 1.6 0.00 0.00 0.00 73 1015.3
20260831184917 21 351 1.6 1.6 0.00 0.00 0.00 73 1015.1
20260831184403 21 18 1.6 3.2 0.00 0.00 0.00 73 1015.1
20260831183854 21 32 0.0 1.6 0.00 0.00 0.00 70 1015.1
20260831183343 21 82 0.0 0.0 0.00 0.00 0.00 70 1015.1
20260831182834 22 87 0.0 1.6 0.00 0.00 0.00 68 1015.0
20260831182338 22 180 3.2 3.2 0.00 0.00 0.00 68 1015.0
20260831181815 22 150 1.6 3.2 0.00 0.00 0.00 68 1014.7
20260831181319 22 101 0.0 3.2 0.00 0.00 0.00 68 1014.7
20260831180754 22 131 1.6 3.2 0.00 0.00 0.00 67 1014.7
20260831180243 22 76 0.0 1.6 0.00 0.00 0.00 67 1014.7
20260831175734 23 112 1.6 4.8 0.00 0.00 0.00 66 1014.8
20260831175223 23 153 1.6 3.2 0.00 0.00 0.00 66 1014.8
20260831174716 23 135 1.6 1.6 0.00 0.00 0.00 65 1014.9
20260831174203 23 86 0.0 1.6 0.00 0.00 0.00 65 1014.9
20260831173654 24 72 0.0 0.0 0.00 0.00 0.00 63 1014.8
20260831173143 24 116 0.0 1.6 0.00 0.00 0.00 63 1014.8
20260831172634 24 131 0.0 1.6 0.00 0.00 0.00 62 1014.8
20260831172123 24 235 1.6 1.6 0.00 0.00 0.00 61 1014.7
20260831171615 24 241 1.6 3.2 0.00 0.00 0.00 61 1014.7
20260831171103 24 255 1.6 4.8 0.00 0.00 0.00 61 1014.7
20260831170553 24 135 1.6 3.2 0.00 0.00 0.00 61 1014.7
20260831170043 25 250 3.2 8.0 0.00 0.00 0.00 60 1014.8
20260831165548 25 263 3.2 4.8 0.00 0.00 0.00 60 1014.8
20260831165037 25 265 3.2 6.4 0.00 0.00 0.00 60 1014.8
20260831164514 25 286 3.2 6.4 0.00 0.00 0.00 60 1014.8
20260831164003 25 230 4.8 8.0 0.00 0.00 0.00 58 1014.9
20260831163453 25 257 4.8 11.3 0.00 0.00 0.00 58 1014.9
20260831162943 26 261 4.8 11.3 0.00 0.00 0.00 57 1014.9
20260831162433 26 235 4.8 9.7 0.00 0.00 0.00 57 1014.9
20260831161923 26 252 4.8 8.0 0.00 0.00 0.00 57 1014.8
20260831161415 26 233 3.2 8.0 0.00 0.00 0.00 57 1014.8
20260831160902 26 196 3.2 9.7 0.00 0.00 0.00 56 1014.8
20260831160352 26 239 4.8 8.0 0.00 0.00 0.00 56 1014.8
20260831155843 26 238 6.4 9.7 0.00 0.00 0.00 55 1014.8
20260831155332 26 249 4.8 8.0 0.00 0.00 0.00 55 1014.8
20260831154822 26 253 6.4 9.7 0.00 0.00 0.00 55 1014.9
20260831154315 26 261 6.4 11.3 0.00 0.00 0.00 55 1014.9
20260831153802 27 257 4.8 8.0 0.00 0.00 0.00 54 1014.8
20260831153253 27 257 4.8 11.3 0.00 0.00 0.00 54 1014.8
20260831152743 27 261 4.8 9.7 0.00 0.00 0.00 54 1014.8
20260831152248 27 258 6.4 11.3 0.00 0.00 0.00 54 1014.8
20260831151722 27 244 6.4 11.3 0.00 0.00 0.00 54 1014.8
20260831151212 27 286 4.8 9.7 0.00 0.00 0.00 55 1014.9
20260831150702 27 280 4.8 9.7 0.00 0.00 0.00 55 1014.9
20260831150152 26 230 6.4 11.3 0.00 0.00 0.00 57 1014.9
20260831145641 26 180 8.0 11.3 0.00 0.00 0.00 57 1014.9
20260831145147 26 218 4.8 9.7 0.00 0.00 0.00 56 1015.0
20260831144637 26 219 6.4 12.9 0.00 0.00 0.00 56 1015.0
20260831144112 26 196 4.8 9.7 0.00 0.00 0.00 59 1015.0
20260831143602 26 212 4.8 8.0 0.00 0.00 0.00 59 1015.0
20260831143052 25 190 4.8 6.4 0.00 0.00 0.00 59 1015.1
20260831142542 25 238 4.8 6.4 0.00 0.00 0.00 59 1015.1
20260831142037 25 202 3.2 6.4 0.00 0.00 0.00 62 1015.1
20260831141522 25 273 3.2 4.8 0.00 0.00 0.00 62 1015.1
20260831141012 25 270 6.4 9.7 0.00 0.00 0.00 59 1015.3
20260831140502 25 286 3.2 8.0 0.00 0.00 0.00 59 1015.3
20260831135952 25 274 3.2 8.0 0.00 0.00 0.00 60 1015.3
20260831135442 24 249 4.8 11.3 0.00 0.00 0.00 61 1015.4
20260831134932 24 256 4.8 11.3 0.00 0.00 0.00 61 1015.4
20260831134421 25 262 4.8 9.7 0.00 0.00 0.00 61 1015.4
20260831133912 25 231 4.8 11.3 0.00 0.00 0.00 61 1015.4
20260831133402 25 283 4.8 9.7 0.00 0.00 0.00 59 1015.3
20260831132907 25 279 4.8 8.0 0.00 0.00 0.00 59 1015.3
20260831132356 25 281 4.8 9.7 0.00 0.00 0.00 57 1015.5
20260831131832 25 271 4.8 11.3 0.00 0.00 0.00 57 1015.5
20260831131321 25 344 6.4 9.7 0.00 0.00 0.00 55 1015.6
20260831130812 25 281 4.8 8.0 0.00 0.00 0.00 55 1015.6
20260831130316 25 295 6.4 12.9 0.00 0.00 0.00 56 1015.6
20260831125751 25 305 6.4 12.9 0.00 0.00 0.00 56 1015.6
20260831125241 26 307 8.0 17.7 0.00 0.00 0.00 54 1015.7
20260831124732 26 294 8.0 14.5 0.00 0.00 0.00 54 1015.7
20260831124220 27 312 8.0 20.9 0.00 0.00 0.00 51 1015.7
20260831123711 27 278 8.0 14.5 0.00 0.00 0.00 51 1015.7
20260831123216 27 263 9.7 14.5 0.00 0.00 0.00 49 1015.8
20260831122651 27 291 9.7 14.5 0.00 0.00 0.00 49 1015.8
20260831122156 26 278 8.0 16.1 0.00 0.00 0.00 51 1015.8
20260831121631 26 280 8.0 14.5 0.00 0.00 0.00 51 1015.8
20260831121135 26 270 6.4 12.9 0.00 0.00 0.00 53 1015.7
20260831120626 27 294 4.8 9.7 0.00 0.00 0.00 51 1015.8
20260831120105 27 296 4.8 11.3 0.00 0.00 0.00 51 1015.8
20260831115606 27 297 6.4 12.9 0.00 0.00 0.00 53 1015.8
20260831115040 27 297 8.0 12.9 0.00 0.00 0.00 53 1015.8
20260831114531 25 282 8.0 12.9 0.00 0.00 0.00 55 1015.8
20260831114036 25 292 8.0 14.5 0.00 0.00 0.00 55 1015.8
20260831113511 26 250 8.0 14.5 0.00 0.00 0.00 54 1015.8
20260831113000 26 274 9.7 16.1 0.00 0.00 0.00 54 1015.8
20260831112451 26 277 8.0 14.5 0.00 0.00 0.00 54 1015.7
20260831111940 26 298 8.0 14.5 0.00 0.00 0.00 54 1015.7
20260831111430 26 261 8.0 12.9 0.00 0.00 0.00 53 1015.7
20260831110920 26 292 9.7 17.7 0.00 0.00 0.00 53 1015.7
20260831110411 27 278 9.7 16.1 0.00 0.00 0.00 55 1015.6
20260831105900 27 295 6.4 12.9 0.00 0.00 0.00 55 1015.6
20260831105350 27 265 8.0 14.5 0.00 0.00 0.00 52 1015.6
20260831104840 27 289 8.0 12.9 0.00 0.00 0.00 52 1015.6
20260831104331 26 275 9.7 17.7 0.00 0.00 0.00 54 1015.5
20260831103820 26 292 6.4 12.9 0.00 0.00 0.00 54 1015.5
20260831103310 26 242 9.7 17.7 0.00 0.00 0.00 52 1015.4
20260831102800 27 254 9.7 19.3 0.00 0.00 0.00 52 1015.4
20260831102250 27 249 11.3 16.1 0.00 0.00 0.00 52 1015.4
20260831101740 27 265 11.3 20.9 0.00 0.00 0.00 51 1015.2
20260831101231 27 272 9.7 20.9 0.00 0.00 0.00 51 1015.2
20260831100720 26 263 9.7 17.7 0.00 0.00 0.00 54 1015.2
20260831100210 26 243 8.0 14.5 0.00 0.00 0.00 54 1015.2
20260831095659 26 244 11.3 20.9 0.00 0.00 0.00 53 1015.2
20260831095206 26 261 8.0 16.1 0.00 0.00 0.00 53 1015.2
20260831094642 26 270 8.0 14.5 0.00 0.00 0.00 53 1015.1
20260831094130 26 264 6.4 11.3 0.00 0.00 0.00 53 1015.1
20260831093619 25 279 6.4 12.9 0.00 0.00 0.00 55 1015.0
20260831093110 25 260 4.8 9.7 0.00 0.00 0.00 55 1015.0
20260831092559 25 273 6.4 12.9 0.00 0.00 0.00 57 1015.0
20260831092105 25 270 4.8 8.0 0.00 0.00 0.00 57 1015.0
20260831091539 25 250 4.8 8.0 0.00 0.00 0.00 56 1014.9
20260831091030 25 281 3.2 6.4 0.00 0.00 0.00 56 1014.9
20260831090519 25 219 3.2 8.0 0.00 0.00 0.00 54 1015.1
20260831090010 25 225 4.8 8.0 0.00 0.00 0.00 54 1015.1
20260831085459 25 283 3.2 6.4 0.00 0.00 0.00 54 1015.2
20260831084950 25 300 4.8 6.4 0.00 0.00 0.00 54 1015.2
20260831084439 26 304 4.8 8.0 0.00 0.00 0.00 55 1015.2
20260831083930 26 286 4.8 9.7 0.00 0.00 0.00 53 1015.0
20260831083419 26 320 4.8 11.3 0.00 0.00 0.00 53 1015.0
20260831082909 27 260 6.4 12.9 0.00 0.00 0.00 48 1014.7
20260831082359 27 243 8.0 14.5 0.00 0.00 0.00 48 1014.7
20260831081849 27 201 8.0 8.0 0.00 0.00 0.00 53 1014.6
20260831081339 27 328 3.2 4.8 0.00 0.00 0.00 53 1014.6
20260831080829 26 347 1.6 4.8 0.00 0.00 0.00 51 1014.6
20260831080319 26 248 1.6 4.8 0.00 0.00 0.00 51 1014.6
20260831075809 26 300 1.6 4.8 0.00 0.00 0.00 52 1014.7
20260831075259 26 44 1.6 3.2 0.00 0.00 0.00 52 1014.7
20260831074749 25 29 1.6 4.8 0.00 0.00 0.00 54 1014.7
20260831074238 25 63 1.6 3.2 0.00 0.00 0.00 54 1014.7
20260831073729 24 13 1.6 4.8 0.00 0.00 0.00 57 1014.7
20260831073219 24 32 3.2 6.4 0.00 0.00 0.00 57 1014.7
20260831072709 22 27 3.2 4.8 0.00 0.00 0.00 60 1014.8
20260831072159 22 14 3.2 4.8 0.00 0.00 0.00 60 1014.8
20260831071649 23 351 3.2 6.4 0.00 0.00 0.00 60 1014.8
20260831071139 23 12 1.6 3.2 0.00 0.00 0.00 60 1014.8
20260831070629 23 355 3.2 4.8 0.00 0.00 0.00 61 1014.8